Location: Newark
(46.1292°N, 1.0086°W)
Time: 02:29:12
(UTC+00:00)

Altair - All Passes

Search period start: 16 November 2019 00:00
Search period end: 26 November 2019 00:00
Orbit: 1502 x 1682 km, 47.2° (Epoch: 14 November)

Date Brightness Start Highest point End Pass type
(mag) Time Alt. Az. Time Alt. Az. Time Alt. Az.
16 Nov - 01:15:33 10° SE 01:18:58 13° ESE 01:22:22 10° E visible
16 Nov - 03:13:11 10° SSW 03:21:42 45° SE 03:30:17 10° ENE visible
16 Nov - 05:16:36 10° WSW 05:25:49 87° SSE 05:35:13 10° ENE visible
16 Nov - 07:21:28 10° W 07:30:45 86° N 07:40:19 10° E daylight
16 Nov - 09:26:12 10° WNW 09:35:18 60° SSW 09:44:43 10° SE daylight
16 Nov - 11:31:58 10° W 11:38:38 22° SW 11:45:28 10° S daylight
17 Nov - 00:52:00 10° SE 00:53:59 11° ESE 00:55:58 10° ESE visible
17 Nov - 02:48:14 10° SSW 02:56:38 42° SE 03:05:04 10° ENE visible
17 Nov - 04:51:27 10° WSW 05:00:39 84° SSE 05:10:01 10° ENE visible
17 Nov - 06:56:17 10° W 07:05:34 85° N 07:15:06 10° E daylight
17 Nov - 09:01:03 10° WNW 09:10:10 63° SSW 09:19:37 10° SE daylight
17 Nov - 11:06:36 10° W 11:13:35 24° SW 11:20:47 10° S daylight
18 Nov - 02:23:19 10° SSW 02:31:34 39° SE 02:39:51 10° ENE visible
18 Nov - 04:26:19 10° WSW 04:35:30 82° SSE 04:44:49 10° ENE visible
18 Nov - 06:31:07 10° W 06:40:22 85° N 06:49:53 10° E visible
18 Nov - 08:35:53 10° WNW 08:45:02 66° SSW 08:54:30 10° SE daylight
18 Nov - 10:41:16 10° W 10:48:33 26° SW 10:56:03 10° S daylight
19 Nov - 01:58:25 10° SSW 02:06:31 36° SE 02:14:37 10° ENE visible
19 Nov - 04:01:11 10° WSW 04:10:21 79° SSE 04:19:38 10° ENE visible
19 Nov - 06:05:58 10° W 06:15:12 84° N 06:24:40 10° E visible
19 Nov - 08:10:44 10° WNW 08:19:54 69° SSW 08:29:22 10° SE daylight
19 Nov - 10:15:57 10° W 10:23:30 28° SW 10:31:16 10° S daylight
20 Nov - 01:33:33 10° SSW 01:41:29 34° SE 01:49:22 10° ENE visible
20 Nov - 03:36:04 10° WSW 03:45:12 77° SSE 03:54:27 10° ENE visible
20 Nov - 05:40:47 10° W 05:50:01 84° N 05:59:27 10° E visible
20 Nov - 07:45:35 10° WNW 07:54:46 72° SSW 08:04:14 10° ESE daylight
20 Nov - 09:50:42 10° WNW 09:58:27 31° SW 10:06:27 10° SSE daylight
21 Nov - 01:08:43 10° SSW 01:16:26 31° SE 01:24:07 10° ENE visible
21 Nov - 03:10:57 10° WSW 03:20:05 74° SSE 03:29:16 10° ENE visible
21 Nov - 05:15:36 10° W 05:24:50 84° N 05:34:14 10° E visible
21 Nov - 07:20:26 10° WNW 07:29:38 75° SSW 07:39:05 10° ESE daylight
21 Nov - 09:25:27 10° WNW 09:33:25 33° SW 09:41:36 10° SSE daylight
22 Nov - 00:43:55 10° S 00:51:24 29° SE 00:58:50 10° E visible
22 Nov - 02:45:51 10° SW 02:54:57 70° SSE 03:04:06 10° ENE visible
22 Nov - 04:50:26 10° W 04:59:39 84° N 05:09:01 10° E visible
22 Nov - 06:55:16 10° WNW 07:04:29 78° SSW 07:13:56 10° ESE daylight
22 Nov - 09:00:13 10° WNW 09:08:20 36° SW 09:16:43 10° SSE daylight
23 Nov - 00:19:10 10° S 00:26:23 26° SE 00:33:32 10° E visible
23 Nov - 02:20:45 10° SW 02:29:50 67° SSE 02:38:55 10° ENE visible
23 Nov - 04:25:15 10° W 04:34:29 84° N 04:43:50 10° E visible
23 Nov - 06:30:07 10° WNW 06:39:20 81° SSW 06:48:47 10° ESE visible
23 Nov - 08:35:00 10° WNW 08:43:17 38° SW 08:51:48 10° SSE daylight
23 Nov - 23:54:27 10° S 00:01:21 24° SE 00:08:12 10° E night (unlit)
24 Nov - 01:55:40 10° SW 02:04:43 64° SSE 02:13:46 10° ENE visible
24 Nov - 04:00:04 10° W 04:09:17 85° N 04:18:37 10° E visible
24 Nov - 06:04:58 10° WNW 06:14:10 83° SSW 06:23:36 10° ESE visible
24 Nov - 08:09:48 10° WNW 08:18:13 41° SW 08:26:51 10° SSE daylight
24 Nov - 10:19:17 10° WSW 10:20:56 11° WSW 10:22:35 10° SW daylight
24 Nov - 23:29:46 10° S 23:36:21 22° SE 23:42:51 10° E night (unlit)
25 Nov - 01:30:36 10° SW 01:39:37 61° SSE 01:48:36 10° ENE visible
25 Nov - 03:34:53 10° W 03:44:07 86° N 03:53:26 10° E visible
25 Nov - 05:39:48 10° WNW 05:49:02 85° SSW 05:58:25 10° ESE visible
25 Nov - 07:44:36 10° WNW 07:53:08 44° SW 08:01:54 10° SSE daylight
25 Nov - 09:52:43 10° WSW 09:55:56 12° WSW 09:59:13 10° SW daylight
25 Nov - 23:05:10 10° S 23:11:20 20° SE 23:17:26 10° E night (unlit)
